WB5MTX Weather Reports


time (UTC)temp
C
wind
direction
speed
KPH
gust
KPH
rain 1hr
cm
rain 24hr
cm
rain mn
cm
humidity
%
barometer
mb
20211017163715 18 13 0.0 0.0 0.00 0.00 0.00 47 1026.7
20211017161714 17 13 0.0 0.0 0.00 0.00 0.00 52 1026.8
20211017150712 12 12 0.0 0.0 0.00 0.00 0.00 75 1027.2
20211017145711 12 12 0.0 0.0 0.00 0.00 0.00 76 1027.1
20211017144711 11 12 0.0 0.0 0.00 0.00 0.00 78 1027.0
20211017143710 10 12 0.0 0.0 0.00 0.00 0.00 80 1027.0
20211017142710 10 12 0.0 0.0 0.00 0.00 0.00 81 1026.9
20211017140710 8 12 0.0 0.0 0.00 0.00 0.00 84 1026.6
20211017134709 8 12 0.0 0.0 0.00 0.00 0.00 83 1026.3
20211017131708 7 12 0.0 0.0 0.00 0.00 0.00 82 1025.8
20211017125707 8 12 0.0 0.0 0.00 0.00 0.00 82 1025.6
20211017123707 8 12 0.0 0.0 0.00 0.00 0.00 82 1025.9
20211017121706 8 12 0.0 0.0 0.00 0.00 0.00 82 1025.7
20211017115705 8 12 0.0 0.0 0.00 0.00 0.00 82 1025.6
20211017113705 8 12 0.0 0.0 0.00 0.00 0.00 82 1025.6
20211017112704 8 12 0.0 0.0 0.00 0.00 0.00 82 1025.5
20211017100732 9 12 0.0 0.0 0.00 0.00 0.00 80 1025.3
20211017095732 9 12 0.0 0.0 0.00 0.00 0.00 80 1025.4
20211017094732 9 12 0.0 0.0 0.00 0.00 0.00 78 1025.5
20211017093731 9 12 0.0 0.0 0.00 0.00 0.00 78 1025.6
20211017090730 10 12 0.0 0.0 0.00 0.00 0.00 77 1025.5
20211017080728 10 12 0.0 0.0 0.00 0.00 0.00 73 1026.0
20211017064725 11 12 0.0 0.0 0.00 0.00 0.00 69 1026.1
20211017062725 11 12 0.0 0.0 0.00 0.00 0.00 68 1026.1
20211017061725 11 12 0.0 0.0 0.00 0.00 0.00 68 1026.0
20211017060724 11 12 0.0 0.0 0.00 0.00 0.00 67 1026.0
20211017055724 11 12 0.0 0.0 0.00 0.00 0.00 67 1026.0
20211017053724 12 12 0.0 0.0 0.00 0.00 0.00 67 1025.9
20211017050723 12 12 0.0 0.0 0.00 0.00 0.00 63 1025.9
20211017044725 13 12 0.0 0.0 0.00 0.00 0.00 62 1026.1
20211017041723 13 12 0.0 0.0 0.00 0.00 0.00 59 1026.0
20211017040724 14 12 0.0 0.0 0.00 0.00 0.00 57 1025.9
20211017034723 14 12 0.0 0.0 0.00 0.00 0.00 55 1025.8
20211017033723 15 12 0.0 0.0 0.00 0.00 0.00 55 1025.9
20211017032722 15 12 0.0 0.0 0.00 0.00 0.00 55 1025.8
20211017025721 15 12 0.0 0.0 0.00 0.00 0.00 54 1025.6
20211017024721 15 12 0.0 0.0 0.00 0.00 0.00 53 1025.3
20211017022721 15 12 0.0 0.0 0.00 0.00 0.00 54 1025.4
20211017013719 16 12 0.0 0.0 0.00 0.00 0.00 50 1025.3
20211017012719 17 12 0.0 0.0 0.00 0.00 0.00 48 1025.3
20211017001716 19 12 0.0 0.0 0.00 0.00 0.00 41 1024.7
20211016234716 20 12 0.0 0.0 0.00 0.00 0.00 41 1024.9
20211016233715 21 12 0.0 0.0 0.00 0.00 0.00 40 1024.9
20211016232715 21 12 0.0 0.0 0.00 0.00 0.00 37 1024.9
20211016231714 21 12 0.0 0.0 0.00 0.00 0.00 36 1024.9
20211016225714 21 12 0.0 0.0 0.00 0.00 0.00 35 1024.9
20211016223713 22 11 0.0 8.0 0.00 0.00 0.00 34 1024.8
20211016222712 22 7 0.0 8.0 0.00 0.00 0.00 34 1024.8
20211016221712 22 12 0.0 3.2 0.00 0.00 0.00 34 1024.9
20211016213712 22 323 0.0 9.7 0.00 0.00 0.00 31 1025.2
20211016212710 22 323 0.0 3.2 0.00 0.00 0.00 32 1025.2
20211016210710 23 265 0.0 8.0 0.00 0.00 0.00 31 1025.3
20211016201709 23 331 0.0 8.0 0.00 0.00 0.00 32 1026.0
20211016194708 23 331 0.0 17.7 0.00 0.00 0.00 33 1026.2
20211016191707 23 323 0.0 9.7 0.00 0.00 0.00 33 1026.8
20211016184706 23 340 0.0 8.0 0.00 0.00 0.00 34 1027.4
20211016181705 22 317 0.0 12.9 0.00 0.00 0.00 36 1028.0
20211016180734 22 21 0.0 8.0 0.00 0.00 0.00 37 1028.2
20211016173733 21 343 0.0 8.0 0.00 0.00 0.00 39 1028.8
20211016172734 20 357 0.0 12.9 0.00 0.00 0.00 40 1028.7